Terug naar catalogus

QIANFAN-106

ActiefCommunicatiePO
NORAD 66048·PAYLOAD·🇨🇳 China

Gelanceerd Oct 17, 2025 vanaf Taiyuan Satellite Launch Center

Loading…

Volgende Passages (komende 24 uur)

TLE

VersSource: Space-Track

Epoch: Sep 14, 2026, 08:41 UTC

1 66048U 25233R   26257.36181134  .00000058  00000-0  71752-4 0  9997
2 66048  89.0038  34.1302 0001563 105.8320 254.3003 13.51029500 45227

Volg QIANFAN-106 in realtime met AllMySat

Download on the App Store